View from above orbital plane
|
View from above satellite
|
Ground track
|
The orbit data is extracted from the following two-line orbital elements,
1 45U 60007A 19344.90617492 -.00000040 +00000-0 +16844-4 0 9993
2 45 066.6929 160.4061 0248133 093.7326 269.2182 14.33659307038662
Epoch (UTC): | 10 December 2019 21:44:53 |
Eccentricity: | 0.0248133 |
inclination: | 66.6929° |
perigee height: | 602 km |
apogee height: | 957 km |
right ascension of ascending node: | 160.4061° |
argument of perigee: | 93.7326° |
revolutions per day: | 14.33659307 |
mean anomaly at epoch: | 269.2182° |
orbit number at epoch: | 3866 |
The dashed part of the orbit path shows where the satellite is in the earth's shadow,
|
|